| time (UTC) | temp F | wind direction | speed MPH | gust MPH | rain 1hr in | rain 24hr in | rain mn in | humidity % | barometer mb |
| 20260509022003 | 56 | 134 | 0.0 | 0.0 | 0.00 | 0.00 | 0.00 | ||
| 20260509021024 | 56 | 134 | 0.0 | 0.0 | 0.00 | 0.00 | 0.00 | ||
| 20260509020003 | 56 | 134 | 0.0 | 0.0 | 0.00 | 0.00 | 0.00 | ||
| 20260509015004 | 56 | 134 | 0.0 | 0.0 | 0.00 | 0.00 | 0.00 | ||
| 20260509014004 | 56 | 134 | 0.0 | 0.0 | 0.00 | 0.00 | 0.00 | ||
| 20260509013003 | 58 | 134 | 0.0 | 0.0 | 0.00 | 0.00 | 0.00 | ||
| 20260509012025 | 59 | 134 | 0.0 | 0.0 | 0.00 | 0.00 | 0.00 | ||
| 20260509011002 | 60 | 134 | 0.0 | 0.0 | 0.00 | 0.00 | 0.00 | ||
| 20260509010003 | 62 | 134 | 0.0 | 0.0 | 0.00 | 0.00 | 0.00 | ||
| 20260509005004 | 63 | 134 | 0.0 | 3.0 | 0.00 | 0.00 | 0.00 | ||
| 20260509004003 | 64 | 180 | 0.0 | 5.0 | 0.00 | 0.00 | 0.00 | ||
| 20260509003003 | 64 | 175 | 0.0 | 0.0 | 0.00 | 0.00 | 0.00 | ||
| 20260509002026 | 64 | 175 | 0.0 | 5.0 | 0.00 | 0.00 | 0.00 | ||
| 20260509001002 | 65 | 175 | 2.0 | 8.0 | 0.00 | 0.00 | 0.00 | ||
| 20260509000003 | 66 | 200 | 2.0 | 8.0 | 0.00 | 0.00 | 0.00 | ||
| 20260508235004 | 67 | 222 | 1.0 | 7.0 | 0.00 | 0.00 | 0.00 | ||
| 20260508234004 | 67 | 229 | 1.0 | 9.0 | 0.00 | 0.00 | 0.00 | ||
| 20260508233003 | 68 | 176 | 1.0 | 12.0 | 0.00 | 0.00 | 0.00 | ||
| 20260508232003 | 69 | 185 | 5.0 | 14.0 | 0.00 | 0.00 | 0.00 | ||
| 20260508231003 | 70 | 224 | 5.0 | 16.0 | 0.00 | 0.00 | 0.00 | ||
| 20260508230003 | 72 | 167 | 6.0 | 13.0 | 0.00 | 0.00 | 0.00 | ||
| 20260508225002 | 76 | 190 | 4.0 | 15.0 | 0.00 | 0.00 | 0.00 | ||
| 20260508224003 | 77 | 200 | 4.0 | 16.0 | 0.00 | 0.00 | 0.00 | ||
| 20260508223025 | 79 | 194 | 8.0 | 15.0 | 0.00 | 0.00 | 0.00 | ||
| 20260508222004 | 80 | 212 | 4.0 | 12.0 | 0.00 | 0.00 | 0.00 | ||
| 20260508221002 | 80 | 210 | 4.0 | 13.0 | 0.00 | 0.00 | 0.00 | ||
| 20260508220003 | 80 | 225 | 7.0 | 17.0 | 0.00 | 0.00 | 0.00 | ||
| 20260508215003 | 81 | 168 | 5.0 | 12.0 | 0.00 | 0.00 | 0.00 | ||
| 20260508214003 | 81 | 207 | 4.0 | 11.0 | 0.00 | 0.00 | 0.00 | ||
| 20260508213004 | 82 | 257 | 4.0 | 12.0 | 0.00 | 0.00 | 0.00 | ||
| 20260508212002 | 81 | 192 | 6.0 | 13.0 | 0.00 | 0.00 | 0.00 | ||
| 20260508211003 | 80 | 183 | 3.0 | 17.0 | 0.00 | 0.00 | 0.00 | ||
| 20260508210024 | 81 | 200 | 5.0 | 12.0 | 0.00 | 0.00 | 0.00 | ||
| 20260508205024 | 81 | 176 | 7.0 | 12.0 | 0.00 | 0.00 | 0.00 | ||
| 20260508203003 | 80 | 181 | 3.0 | 12.0 | 0.00 | 0.00 | 0.00 | ||
| 20260508202002 | 80 | 169 | 7.0 | 13.0 | 0.00 | 0.00 | 0.00 | ||
| 20260508201003 | 80 | 190 | 4.0 | 13.0 | 0.00 | 0.00 | 0.00 | ||
| 20260508200003 | 79 | 203 | 7.0 | 17.0 | 0.00 | 0.00 | 0.00 | ||
| 20260508195003 | 79 | 189 | 4.0 | 16.0 | 0.00 | 0.00 | 0.00 | ||
| 20260508194002 | 79 | 222 | 4.0 | 15.0 | 0.00 | 0.00 | 0.00 | ||
| 20260508193003 | 78 | 221 | 5.0 | 14.0 | 0.00 | 0.00 | 0.00 | ||
| 20260508192003 | 77 | 159 | 9.0 | 17.0 | 0.00 | 0.00 | 0.00 | ||
| 20260508191003 | 77 | 239 | 6.0 | 16.0 | 0.00 | 0.00 | 0.00 | ||
| 20260508190025 | 78 | 200 | 2.0 | 16.0 | 0.00 | 0.00 | 0.00 | ||
| 20260508185003 | 76 | 162 | 7.0 | 13.0 | 0.00 | 0.00 | 0.00 | ||
| 20260508184003 | 73 | 213 | 2.0 | 14.0 | 0.00 | 0.00 | 0.00 | ||
| 20260508183002 | 71 | 171 | 11.0 | 23.0 | 0.00 | 0.00 | 0.00 | ||
| 20260508182045 | 70 | 186 | 4.0 | 16.0 | 0.00 | 0.00 | 0.00 | ||
| 20260508181003 | 70 | 225 | 4.0 | 20.0 | 0.00 | 0.00 | 0.00 | ||
| 20260508180002 | 70 | 178 | 6.0 | 15.0 | 0.00 | 0.00 | 0.00 | ||
| 20260508175002 | 70 | 187 | 6.0 | 14.0 | 0.00 | 0.00 | 0.00 | ||
| 20260508174002 | 70 | 208 | 6.0 | 12.0 | 0.00 | 0.00 | 0.00 | ||
| 20260508173003 | 69 | 246 | 3.0 | 10.0 | 0.00 | 0.00 | 0.00 | ||
| 20260508172003 | 69 | 182 | 6.0 | 16.0 | 0.00 | 0.00 | 0.00 | ||
| 20260508171003 | 69 | 224 | 5.0 | 13.0 | 0.00 | 0.00 | 0.00 | ||
| 20260508170024 | 68 | 152 | 9.0 | 14.0 | 0.00 | 0.00 | 0.00 | ||
| 20260508165004 | 68 | 205 | 7.0 | 14.0 | 0.00 | 0.00 | 0.00 | ||
| 20260508164002 | 68 | 250 | 3.0 | 11.0 | 0.00 | 0.00 | 0.00 | ||
| 20260508163003 | 67 | 173 | 4.0 | 13.0 | 0.00 | 0.00 | 0.00 | ||
| 20260508162003 | 67 | 146 | 0.0 | 11.0 | 0.00 | 0.00 | 0.00 | ||
| 20260508161026 | 67 | 239 | 4.0 | 12.0 | 0.00 | 0.00 | 0.00 | ||
| 20260508160003 | 67 | 235 | 4.0 | 9.0 | 0.00 | 0.00 | 0.00 | ||
| 20260508155002 | 66 | 219 | 4.0 | 11.0 | 0.00 | 0.00 | 0.00 | ||
| 20260508154003 | 68 | 223 | 4.0 | 13.0 | 0.00 | 0.00 | 0.00 | ||
| 20260508153003 | 71 | 271 | 3.0 | 11.0 | 0.00 | 0.00 | 0.00 | ||
| 20260508152002 | 71 | 190 | 5.0 | 12.0 | 0.00 | 0.00 | 0.00 | ||
| 20260508151003 | 71 | 165 | 4.0 | 10.0 | 0.00 | 0.00 | 0.00 | ||
| 20260508150024 | 70 | 211 | 2.0 | 10.0 | 0.00 | 0.00 | 0.00 | ||
| 20260508145002 | 69 | 233 | 4.0 | 10.0 | 0.00 | 0.00 | 0.00 | ||
| 20260508144024 | 69 | 289 | 1.0 | 10.0 | 0.00 | 0.00 | 0.00 | ||
| 20260508143003 | 68 | 236 | 4.0 | 11.0 | 0.00 | 0.00 | 0.00 | ||
| 20260508142002 | 68 | 263 | 3.0 | 9.0 | 0.00 | 0.00 | 0.00 | ||
| 20260508141002 | 67 | 223 | 3.0 | 11.0 | 0.00 | 0.00 | 0.00 | ||
| 20260508140004 | 66 | 218 | 4.0 | 9.0 | 0.00 | 0.00 | 0.00 | ||
| 20260508135003 | 65 | 248 | 4.0 | 10.0 | 0.00 | 0.00 | 0.00 | ||
| 20260508134002 | 64 | 264 | 5.0 | 10.0 | 0.00 | 0.00 | 0.00 | ||
| 20260508133004 | 63 | 230 | 1.0 | 7.0 | 0.00 | 0.00 | 0.00 | ||
| 20260508132002 | 61 | 198 | 0.0 | 6.0 | 0.00 | 0.00 | 0.00 | ||
| 20260508131004 | 59 | 231 | 5.0 | 10.0 | 0.00 | 0.00 | 0.00 | ||
| 20260508130003 | 53 | 189 | 1.0 | 7.0 | 0.00 | 0.00 | 0.00 | ||
| 20260508125002 | 49 | 184 | 0.0 | 5.0 | 0.00 | 0.00 | 0.00 | ||
| 20260508124002 | 47 | 291 | 0.0 | 5.0 | 0.00 | 0.00 | 0.00 | ||
| 20260508123004 | 45 | 217 | 1.0 | 4.0 | 0.00 | 0.00 | 0.00 | ||
| 20260508122002 | 43 | 198 | 0.0 | 3.0 | 0.00 | 0.00 | 0.00 | ||
| 20260508121002 | 42 | 333 | 0.0 | 0.0 | 0.00 | 0.00 | 0.00 | ||
| 20260508115002 | 38 | 333 | 0.0 | 0.0 | 0.00 | 0.00 | 0.00 | ||
| 20260508114004 | 37 | 333 | 0.0 | 0.0 | 0.00 | 0.00 | 0.00 | ||
| 20260508113002 | 36 | 333 | 0.0 | 0.0 | 0.00 | 0.00 | 0.00 | ||
| 20260508112003 | 36 | 333 | 0.0 | 0.0 | 0.00 | 0.00 | 0.00 | ||
| 20260508111003 | 36 | 333 | 0.0 | 0.0 | 0.00 | 0.00 | 0.00 | ||
| 20260508110002 | 35 | 333 | 0.0 | 0.0 | 0.00 | 0.00 | 0.00 | ||
| 20260508105023 | 35 | 333 | 0.0 | 0.0 | 0.00 | 0.00 | 0.00 | ||
| 20260508104002 | 35 | 333 | 0.0 | 0.0 | 0.00 | 0.00 | 0.00 | ||
| 20260508103002 | 35 | 333 | 0.0 | 0.0 | 0.00 | 0.00 | 0.00 | ||
| 20260508102002 | 35 | 333 | 0.0 | 0.0 | 0.00 | 0.00 | 0.00 | ||
| 20260508101003 | 36 | 333 | 0.0 | 0.0 | 0.00 | 0.00 | 0.00 | ||
| 20260508100002 | 36 | 333 | 0.0 | 0.0 | 0.00 | 0.00 | 0.00 | ||
| 20260508095002 | 36 | 333 | 0.0 | 0.0 | 0.00 | 0.00 | 0.00 | ||
| 20260508094003 | 36 | 333 | 0.0 | 0.0 | 0.00 | 0.00 | 0.00 | ||
| 20260508093003 | 36 | 333 | 0.0 | 0.0 | 0.00 | 0.00 | 0.00 | ||
| 20260508092002 | 36 | 333 | 0.0 | 0.0 | 0.00 | 0.00 | 0.00 | ||
| 20260508091002 | 36 | 333 | 0.0 | 0.0 | 0.00 | 0.00 | 0.00 | ||
| 20260508090002 | 36 | 333 | 0.0 | 0.0 | 0.00 | 0.00 | 0.00 | ||
| 20260508085002 | 36 | 333 | 0.0 | 0.0 | 0.00 | 0.00 | 0.00 | ||
| 20260508084003 | 36 | 333 | 0.0 | 0.0 | 0.00 | 0.00 | 0.00 | ||
| 20260508083002 | 36 | 333 | 0.0 | 0.0 | 0.00 | 0.00 | 0.00 | ||
| 20260508082003 | 36 | 333 | 0.0 | 0.0 | 0.00 | 0.00 | 0.00 | ||
| 20260508081002 | 36 | 333 | 0.0 | 0.0 | 0.00 | 0.00 | 0.00 | ||
| 20260508080025 | 36 | 333 | 0.0 | 0.0 | 0.00 | 0.00 | 0.00 | ||
| 20260508075003 | 36 | 333 | 0.0 | 0.0 | 0.00 | 0.00 | 0.00 | ||
| 20260508074023 | 37 | 333 | 0.0 | 0.0 | 0.00 | 0.00 | 0.00 | ||
| 20260508073004 | 37 | 333 | 0.0 | 0.0 | 0.00 | 0.00 | 0.00 | ||
| 20260508072002 | 37 | 333 | 0.0 | 0.0 | 0.00 | 0.00 | 0.00 | ||
| 20260508071024 | 37 | 333 | 0.0 | 0.0 | 0.00 | 0.00 | 0.00 | ||
| 20260508070005 | 37 | 333 | 0.0 | 0.0 | 0.00 | 0.00 | 0.00 | ||
| 20260508065003 | 37 | 333 | 0.0 | 0.0 | 0.00 | 0.00 | 0.00 | ||
| 20260508064023 | 37 | 333 | 0.0 | 0.0 | 0.00 | 0.00 | 0.00 | ||
| 20260508063003 | 37 | 333 | 0.0 | 0.0 | 0.00 | 0.00 | 0.00 | ||
| 20260508062002 | 38 | 333 | 0.0 | 0.0 | 0.00 | 0.00 | 0.00 | ||
| 20260508061046 | 38 | 333 | 0.0 | 0.0 | 0.00 | 0.00 | 0.00 | ||
| 20260508060024 | 38 | 333 | 0.0 | 0.0 | 0.00 | 0.00 | 0.00 | ||
| 20260508055003 | 38 | 333 | 0.0 | 0.0 | 0.00 | 0.00 | 0.00 | ||
| 20260508054003 | 38 | 333 | 0.0 | 0.0 | 0.00 | 0.00 | 0.00 | ||
| 20260508053003 | 38 | 333 | 0.0 | 0.0 | 0.00 | 0.00 | 0.00 | ||
| 20260508052002 | 39 | 333 | 0.0 | 0.0 | 0.00 | 0.00 | 0.00 | ||
| 20260508051004 | 39 | 333 | 0.0 | 0.0 | 0.00 | 0.00 | 0.00 | ||
| 20260508050002 | 39 | 333 | 0.0 | 0.0 | 0.00 | 0.00 | 0.00 | ||
| 20260508045003 | 39 | 333 | 0.0 | 0.0 | 0.00 | 0.00 | 0.00 | ||
| 20260508044004 | 39 | 333 | 0.0 | 0.0 | 0.00 | 0.00 | 0.00 | ||
| 20260508043003 | 39 | 333 | 0.0 | 0.0 | 0.00 | 0.00 | 0.00 | ||
| 20260508042002 | 40 | 333 | 0.0 | 0.0 | 0.00 | 0.00 | 0.00 | ||
| 20260508041003 | 40 | 333 | 0.0 | 0.0 | 0.00 | 0.00 | 0.00 | ||
| 20260508040003 | 40 | 333 | 0.0 | 0.0 | 0.00 | 0.00 | 0.00 | ||
| 20260508035002 | 40 | 333 | 0.0 | 0.0 | 0.00 | 0.00 | 0.00 | ||
| 20260508034004 | 40 | 333 | 0.0 | 0.0 | 0.00 | 0.00 | 0.00 | ||
| 20260508033003 | 40 | 333 | 0.0 | 0.0 | 0.00 | 0.00 | 0.00 | ||
| 20260508032003 | 41 | 333 | 0.0 | 0.0 | 0.00 | 0.00 | 0.00 | ||
| 20260508031003 | 41 | 333 | 0.0 | 0.0 | 0.00 | 0.00 | 0.00 | ||
| 20260508030004 | 42 | 333 | 0.0 | 0.0 | 0.00 | 0.00 | 0.00 | ||
| 20260508025002 | 42 | 333 | 0.0 | 0.0 | 0.00 | 0.00 | 0.00 | ||
| 20260508024003 | 42 | 333 | 0.0 | 0.0 | 0.00 | 0.00 | 0.00 | ||
| 20260508023004 | 43 | 333 | 0.0 | 0.0 | 0.00 | 0.00 | 0.00 |